User: anonymous   Login
Location: Ponte Samoggia
(44.5667°N, 11.1333°E)
Time: 06:18:09
(UTC+00:00)
Language:

Cosmos 2341 Rocket - Orbit

View from above orbital plane
View from above orbital plane
View from above satellite
View from above satellite

Ground track
Ground track

The orbit data is extracted from the following two-line orbital elements,

1 24773U 97017B   22222.57285785  .00000154  00000-0  14818-3 0  9999
2 24773  82.9188  59.7318 0025723 111.0273 271.0172 13.73693064268770
Epoch (UTC): 10 August 2022 13:44:54
Eccentricity: 0.0025723
inclination: 82.9188°
perigee height: 967 km
apogee height: 1005 km
right ascension of ascending node: 59.7318°
argument of perigee: 111.0273°
revolutions per day: 13.73693064
mean anomaly at epoch: 271.0172°
orbit number at epoch: 26877

The dashed part of the orbit path shows where the satellite is in the earth's shadow,  

DLR